Wetterdaten: Mittwoch, 02.04.2014
Datum Zeit Temperatur Luftfeuchte Luftdruck Regen Wind Richtung Richtung Taupunkt Windchill Windben
02.04.2014 00:00 5,3 C 76 % 1013,1 hPa 0,0 l/m 0,0 km/h (0 Bft) SW 225 1,4 C 0,0 C 0,0 km/h (0 Bft)
02.04.2014 00:05 5,2 C 76 % 1012,9 hPa 0,0 l/m 0,0 km/h (0 Bft) SW 225 1,3 C 0,0 C 0,0 km/h (0 Bft)
02.04.2014 00:10 5,0 C 76 % 1012,9 hPa 0,0 l/m 0,0 km/h (0 Bft) SW 225 1,1 C 0,0 C 0,0 km/h (0 Bft)
02.04.2014 00:15 5,1 C 77 % 1012,9 hPa 0,0 l/m 0,0 km/h (0 Bft) SW 225 1,4 C 0,0 C 0,0 km/h (0 Bft)
02.04.2014 00:20 5,3 C 78 % 1012,9 hPa 0,0 l/m 0,0 km/h (0 Bft) SW 225 1,8 C 0,0 C 0,0 km/h (0 Bft)
02.04.2014 00:25 5,1 C 78 % 1012,9 hPa 0,0 l/m 0,0 km/h (0 Bft) SW 225 1,6 C 0,0 C 0,0 km/h (0 Bft)
02.04.2014 00:30 4,8 C 77 % 1012,9 hPa 0,0 l/m 0,0 km/h (0 Bft) SW 225 1,1 C 0,0 C 0,0 km/h (0 Bft)
02.04.2014 00:35 4,6 C 77 % 1012,9 hPa 0,0 l/m 0,0 km/h (0 Bft) SW 225 0,9 C 0,0 C 0,0 km/h (0 Bft)
02.04.2014 00:40 4,4 C 77 % 1012,9 hPa 0,0 l/m 0,0 km/h (0 Bft) SW 225 0,7 C 0,0 C 0,0 km/h (0 Bft)
02.04.2014 00:45 4,2 C 77 % 1012,8 hPa 0,0 l/m 0,0 km/h (0 Bft) SW 225 0,5 C 0,0 C 0,0 km/h (0 Bft)
02.04.2014 00:50 4,3 C 79 % 1012,8 hPa 0,0 l/m 0,0 km/h (0 Bft) SW 225 1,0 C 0,0 C 0,0 km/h (0 Bft)
02.04.2014 00:55 4,3 C 79 % 1012,8 hPa 0,0 l/m 0,0 km/h (0 Bft) SW 225 1,0 C 0,0 C 0,0 km/h (0 Bft)
02.04.2014 01:00 4,8 C 83 % 1012,8 hPa 0,0 l/m 0,0 km/h (0 Bft) SW 225 2,2 C 0,0 C 0,0 km/h (0 Bft)
02.04.2014 01:05 4,9 C 82 % 1012,8 hPa 0,0 l/m 0,0 km/h (0 Bft) SW 225 2,1 C 0,0 C 0,0 km/h (0 Bft)
02.04.2014 01:10 4,6 C 81 % 1012,8 hPa 0,0 l/m 0,0 km/h (0 Bft) SW 225 1,6 C 0,0 C 0,0 km/h (0 Bft)
02.04.2014 01:15 4,6 C 81 % 1012,8 hPa 0,0 l/m 0,0 km/h (0 Bft) SW 225 1,6 C 0,0 C 0,0 km/h (0 Bft)
02.04.2014 01:20 4,2 C 80 % 1012,8 hPa 0,0 l/m 0,0 km/h (0 Bft) SW 225 1,1 C 0,0 C 0,0 km/h (0 Bft)
02.04.2014 01:25 4,1 C 80 % 1012,8 hPa 0,0 l/m 0,0 km/h (0 Bft) SW 225 1,0 C 0,0 C 0,0 km/h (0 Bft)
02.04.2014 01:30 3,8 C 80 % 1012,8 hPa 0,0 l/m 0,0 km/h (0 Bft) SW 225 0,7 C 0,0 C 0,0 km/h (0 Bft)
02.04.2014 01:35 3,8 C 80 % 1012,8 hPa 0,0 l/m 0,0 km/h (0 Bft) SW 225 0,7 C 0,0 C 0,0 km/h (0 Bft)
02.04.2014 01:40 4,2 C 81 % 1012,8 hPa 0,0 l/m 0,0 km/h (0 Bft) SW 225 1,2 C 0,0 C 0,0 km/h (0 Bft)
02.04.2014 01:45 5,1 C 82 % 1012,9 hPa 0,0 l/m 0,0 km/h (0 Bft) SW 225 2,3 C 0,0 C 0,0 km/h (0 Bft)
02.04.2014 01:50 5,1 C 81 % 1012,9 hPa 0,0 l/m 0,0 km/h (0 Bft) SW 225 2,1 C 0,0 C 0,0 km/h (0 Bft)
02.04.2014 01:55 5,4 C 81 % 1012,9 hPa 0,0 l/m 0,0 km/h (0 Bft) SW 225 2,4 C 0,0 C 0,0 km/h (0 Bft)
02.04.2014 02:00 5,2 C 81 % 1012,9 hPa 0,0 l/m 0,0 km/h (0 Bft) SW 225 2,2 C 0,0 C 0,0 km/h (0 Bft)
02.04.2014 02:05 5,4 C 81 % 1012,9 hPa 0,0 l/m 0,0 km/h (0 Bft) SW 225 2,4 C 0,0 C 0,0 km/h (0 Bft)
02.04.2014 02:10 5,7 C 80 % 1012,9 hPa 0,0 l/m 0,0 km/h (0 Bft) SW 225 2,5 C 0,0 C 0,0 km/h (0 Bft)
02.04.2014 02:15 5,7 C 80 % 1012,9 hPa 0,0 l/m 0,0 km/h (0 Bft) SW 225 2,5 C 0,0 C 0,0 km/h (0 Bft)
02.04.2014 02:20 5,8 C 79 % 1012,9 hPa 0,0 l/m 0,0 km/h (0 Bft) SW 225 2,4 C 0,0 C 0,0 km/h (0 Bft)
02.04.2014 02:25 5,9 C 79 % 1013,1 hPa 0,0 l/m 0,0 km/h (0 Bft) SW 225 2,5 C 0,0 C 0,0 km/h (0 Bft)
02.04.2014 02:30 6,2 C 78 % 1013,1 hPa 0,0 l/m 0,0 km/h (0 Bft) SW 225 2,7 C 0,0 C 0,0 km/h (0 Bft)
02.04.2014 02:35 5,7 C 78 % 1013,1 hPa 0,0 l/m 0,0 km/h (0 Bft) SW 225 2,2 C 0,0 C 0,0 km/h (0 Bft)
02.04.2014 02:40 5,0 C 77 % 1013,1 hPa 0,0 l/m 0,0 km/h (0 Bft) SW 225 1,3 C 0,0 C 0,0 km/h (0 Bft)
02.04.2014 02:45 4,7 C 78 % 1012,8 hPa 0,0 l/m 0,0 km/h (0 Bft) SW 225 1,2 C 0,0 C 0,0 km/h (0 Bft)
02.04.2014 02:50 4,6 C 78 % 1012,8 hPa 0,0 l/m 0,0 km/h (0 Bft) SW 225 1,1 C 0,0 C 0,0 km/h (0 Bft)
02.04.2014 02:55 4,4 C 78 % 1012,8 hPa 0,0 l/m 0,0 km/h (0 Bft) SW 225 0,9 C 0,0 C 0,0 km/h (0 Bft)
02.04.2014 03:00 4,6 C 80 % 1012,8 hPa 0,0 l/m 0,0 km/h (0 Bft) SW 225 1,5 C 0,0 C 0,0 km/h (0 Bft)
02.04.2014 03:05 5,1 C 81 % 1012,9 hPa 0,0 l/m 0,0 km/h (0 Bft) SW 225 2,1 C 0,0 C 0,0 km/h (0 Bft)
02.04.2014 03:10 5,1 C 81 % 1012,9 hPa 0,0 l/m 0,0 km/h (0 Bft) SW 225 2,1 C 0,0 C 0,0 km/h (0 Bft)
02.04.2014 03:15 5,1 C 81 % 1012,9 hPa 0,0 l/m 0,0 km/h (0 Bft) SW 225 2,1 C 0,0 C 0,0 km/h (0 Bft)
02.04.2014 03:20 4,9 C 81 % 1012,9 hPa 0,0 l/m 0,0 km/h (0 Bft) SW 225 1,9 C 0,0 C 0,0 km/h (0 Bft)
02.04.2014 03:25 5,4 C 80 % 1012,9 hPa 0,0 l/m 0,0 km/h (0 Bft) SW 225 2,2 C 0,0 C 0,0 km/h (0 Bft)
02.04.2014 03:30 5,7 C 80 % 1012,8 hPa 0,0 l/m 0,0 km/h (0 Bft) SW 225 2,5 C 0,0 C 0,0 km/h (0 Bft)
02.04.2014 03:35 5,9 C 79 % 1012,8 hPa 0,0 l/m 0,0 km/h (0 Bft) SW 225 2,5 C 0,0 C 0,0 km/h (0 Bft)
02.04.2014 03:40 5,9 C 79 % 1012,8 hPa 0,0 l/m 0,0 km/h (0 Bft) SW 225 2,5 C 0,0 C 0,0 km/h (0 Bft)
02.04.2014 03:45 5,8 C 78 % 1012,8 hPa 0,0 l/m 0,0 km/h (0 Bft) SW 225 2,3 C 0,0 C 0,0 km/h (0 Bft)
02.04.2014 03:50 5,7 C 78 % 1012,9 hPa 0,0 l/m 0,0 km/h (0 Bft) SW 225 2,2 C 0,0 C 0,0 km/h (0 Bft)
02.04.2014 03:55 4,8 C 78 % 1012,9 hPa 0,0 l/m 0,0 km/h (0 Bft) SW 225 1,3 C 0,0 C 0,0 km/h (0 Bft)
02.04.2014 04:00 4,3 C 78 % 1012,9 hPa 0,0 l/m 0,0 km/h (0 Bft) SW 225 0,8 C 0,0 C 0,0 km/h (0 Bft)
02.04.2014 04:05 4,0 C 78 % 1012,9 hPa 0,0 l/m 0,0 km/h (0 Bft) SW 225 0,5 C 0,0 C 0,0 km/h (0 Bft)
02.04.2014 04:10 3,9 C 78 % 1012,4 hPa 0,0 l/m 0,0 km/h (0 Bft) SW 225 0,4 C 0,0 C 0,0 km/h (0 Bft)
02.04.2014 04:15 3,8 C 79 % 1012,4 hPa 0,0 l/m 0,0 km/h (0 Bft) SW 225 0,5 C 0,0 C 0,0 km/h (0 Bft)
02.04.2014 04:20 3,7 C 79 % 1012,4 hPa 0,0 l/m 0,0 km/h (0 Bft) SW 225 0,4 C 0,0 C 0,0 km/h (0 Bft)
02.04.2014 04:25 3,8 C 80 % 1012,4 hPa 0,0 l/m 0,0 km/h (0 Bft) SW 225 0,7 C 0,0 C 0,0 km/h (0 Bft)
02.04.2014 04:30 3,6 C 80 % 1012,5 hPa 0,0 l/m 0,0 km/h (0 Bft) SW 225 0,5 C 0,0 C 0,0 km/h (0 Bft)
02.04.2014 04:35 3,3 C 80 % 1012,5 hPa 0,0 l/m 0,0 km/h (0 Bft) SW 225 0,2 C 0,0 C 0,0 km/h (0 Bft)
02.04.2014 04:40 3,2 C 80 % 1012,5 hPa 0,0 l/m 0,0 km/h (0 Bft) SW 225 0,1 C 0,0 C 0,0 km/h (0 Bft)
02.04.2014 04:45 3,0 C 81 % 1012,5 hPa 0,0 l/m 0,0 km/h (0 Bft) SW 225 0,1 C 0,0 C 0,0 km/h (0 Bft)
02.04.2014 04:50 2,9 C 82 % 1012,6 hPa 0,0 l/m 0,0 km/h (0 Bft) SW 225 0,1 C 0,0 C 0,0 km/h (0 Bft)
02.04.2014 04:55 3,0 C 82 % 1012,6 hPa 0,0 l/m 0,0 km/h (0 Bft) SW 225 0,2 C 0,0 C 0,0 km/h (0 Bft)
02.04.2014 05:00 2,9 C 83 % 1012,6 hPa 0,0 l/m 0,0 km/h (0 Bft) SW 225 0,3 C 0,0 C 0,0 km/h (0 Bft)
02.04.2014 05:05 2,9 C 84 % 1012,6 hPa 0,0 l/m 0,0 km/h (0 Bft) SW 225 0,5 C 0,0 C 0,0 km/h (0 Bft)
02.04.2014 05:10 2,8 C 84 % 1012,4 hPa 0,0 l/m 0,0 km/h (0 Bft) SW 225 0,4 C 0,0 C 0,0 km/h (0 Bft)
02.04.2014 05:15 2,9 C 84 % 1012,4 hPa 0,0 l/m 0,0 km/h (0 Bft) SW 225 0,5 C 0,0 C 0,0 km/h (0 Bft)
02.04.2014 05:20 2,7 C 84 % 1012,4 hPa 0,0 l/m 0,0 km/h (0 Bft) SW 225 0,3 C 0,0 C 0,0 km/h (0 Bft)
02.04.2014 05:25 2,9 C 85 % 1012,4 hPa 0,0 l/m 0,0 km/h (0 Bft) SW 225 0,6 C 0,0 C 0,0 km/h (0 Bft)
02.04.2014 05:30 2,7 C 85 % 1012,3 hPa 0,0 l/m 0,0 km/h (0 Bft) SW 225 0,4 C 0,0 C 0,0 km/h (0 Bft)
02.04.2014 05:35 3,0 C 85 % 1012,3 hPa 0,0 l/m 0,0 km/h (0 Bft) SW 225 0,7 C 0,0 C 0,0 km/h (0 Bft)
02.04.2014 05:40 3,1 C 85 % 1012,3 hPa 0,0 l/m 0,0 km/h (0 Bft) SW 225 0,8 C 0,0 C 0,0 km/h (0 Bft)
02.04.2014 05:45 2,9 C 86 % 1012,3 hPa 0,0 l/m 0,0 km/h (0 Bft) SW 225 0,8 C 0,0 C 0,0 km/h (0 Bft)
02.04.2014 05:50 2,9 C 85 % 1012,5 hPa 0,0 l/m 0,0 km/h (0 Bft) SW 225 0,6 C 0,0 C 0,0 km/h (0 Bft)
02.04.2014 05:55 3,3 C 85 % 1012,5 hPa 0,0 l/m 0,0 km/h (0 Bft) SW 225 1,0 C 0,0 C 0,0 km/h (0 Bft)
02.04.2014 06:00 3,4 C 85 % 1012,5 hPa 0,0 l/m 0,0 km/h (0 Bft) SW 225 1,1 C 0,0 C 0,0 km/h (0 Bft)
02.04.2014 06:05 3,4 C 85 % 1012,5 hPa 0,0 l/m 0,0 km/h (0 Bft) SW 225 1,1 C 0,0 C 0,0 km/h (0 Bft)
02.04.2014 06:10 3,3 C 85 % 1012,5 hPa 0,0 l/m 0,0 km/h (0 Bft) SW 225 1,0 C 0,0 C 0,0 km/h (0 Bft)
02.04.2014 06:15 3,5 C 85 % 1012,5 hPa 0,0 l/m 0,0 km/h (0 Bft) SW 225 1,2 C 0,0 C 0,0 km/h (0 Bft)
02.04.2014 06:20 3,4 C 85 % 1012,5 hPa 0,0 l/m 0,0 km/h (0 Bft) SW 225 1,1 C 0,0 C 0,0 km/h (0 Bft)
02.04.2014 06:25 3,2 C 85 % 1012,5 hPa 0,0 l/m 0,0 km/h (0 Bft) SW 225 0,9 C 0,0 C 0,0 km/h (0 Bft)
02.04.2014 06:30 3,0 C 85 % 1012,4 hPa 0,0 l/m 0,0 km/h (0 Bft) SW 225 0,7 C 0,0 C 0,0 km/h (0 Bft)
02.04.2014 06:35 2,9 C 86 % 1012,4 hPa 0,0 l/m 0,0 km/h (0 Bft) SW 225 0,8 C 0,0 C 0,0 km/h (0 Bft)
02.04.2014 06:40 2,6 C 85 % 1012,4 hPa 0,0 l/m 0,0 km/h (0 Bft) SW 225 0,3 C 0,0 C 0,0 km/h (0 Bft)
02.04.2014 06:45 2,5 C 85 % 1012,4 hPa 0,0 l/m 0,0 km/h (0 Bft) SW 225 0,2 C 0,0 C 0,0 km/h (0 Bft)
02.04.2014 06:50 2,3 C 85 % 1012,8 hPa 0,0 l/m 0,0 km/h (0 Bft) SW 225 0,0 C 0,0 C 0,0 km/h (0 Bft)
02.04.2014 06:55 2,4 C 86 % 1012,8 hPa 0,0 l/m 0,0 km/h (0 Bft) SW 225 0,3 C 0,0 C 0,0 km/h (0 Bft)
02.04.2014 07:00 2,4 C 86 % 1012,8 hPa 0,0 l/m 0,0 km/h (0 Bft) SW 225 0,3 C 0,0 C 0,0 km/h (0 Bft)
02.04.2014 07:05 2,5 C 86 % 1012,8 hPa 0,0 l/m 0,0 km/h (0 Bft) SW 225 0,4 C 0,0 C 0,0 km/h (0 Bft)
02.04.2014 07:10 2,6 C 86 % 1012,5 hPa 0,0 l/m 0,0 km/h (0 Bft) SW 225 0,5 C 0,0 C 0,0 km/h (0 Bft)
02.04.2014 07:15 2,6 C 86 % 1012,5 hPa 0,0 l/m 0,0 km/h (0 Bft) SW 225 0,5 C 0,0 C 0,0 km/h (0 Bft)
02.04.2014 07:20 2,5 C 86 % 1012,5 hPa 0,0 l/m 0,0 km/h (0 Bft) SW 225 0,4 C 0,0 C 0,0 km/h (0 Bft)
02.04.2014 07:25 2,7 C 86 % 1012,5 hPa 0,0 l/m 0,0 km/h (0 Bft) SW 225 0,6 C 0,0 C 0,0 km/h (0 Bft)
02.04.2014 07:30 2,6 C 86 % 1012,4 hPa 0,0 l/m 0,0 km/h (0 Bft) SW 225 0,5 C 0,0 C 0,0 km/h (0 Bft)
02.04.2014 07:35 2,9 C 86 % 1012,4 hPa 0,0 l/m 0,0 km/h (0 Bft) SW 225 0,8 C 0,0 C 0,0 km/h (0 Bft)
02.04.2014 07:40 3,0 C 86 % 1012,4 hPa 0,0 l/m 0,0 km/h (0 Bft) SW 225 0,9 C 0,0 C 0,0 km/h (0 Bft)
02.04.2014 07:45 3,2 C 86 % 1012,4 hPa 0,0 l/m 0,0 km/h (0 Bft) SW 225 1,1 C 0,0 C 0,0 km/h (0 Bft)
02.04.2014 07:50 3,4 C 86 % 1012,5 hPa 0,0 l/m 0,0 km/h (0 Bft) SW 225 1,3 C 0,0 C 0,0 km/h (0 Bft)
02.04.2014 07:55 3,9 C 86 % 1012,5 hPa 0,0 l/m 0,0 km/h (0 Bft) SW 225 1,8 C 0,0 C 0,0 km/h (0 Bft)
02.04.2014 08:00 4,1 C 86 % 1012,5 hPa 0,0 l/m 0,0 km/h (0 Bft) SW 225 2,0 C 0,0 C 0,0 km/h (0 Bft)
02.04.2014 08:05 4,3 C 86 % 1012,5 hPa 0,0 l/m 0,0 km/h (0 Bft) SW 225 2,2 C 0,0 C 0,0 km/h (0 Bft)
02.04.2014 08:10 4,4 C 85 % 1012,6 hPa 0,0 l/m 0,0 km/h (0 Bft) SW 225 2,1 C 0,0 C 0,0 km/h (0 Bft)
02.04.2014 08:15 4,6 C 85 % 1012,6 hPa 0,0 l/m 0,0 km/h (0 Bft) SW 225 2,3 C 0,0 C 0,0 km/h (0 Bft)
02.04.2014 08:20 5,4 C 85 % 1012,6 hPa 0,0 l/m 0,0 km/h (0 Bft) SW 225 3,1 C 0,0 C 0,0 km/h (0 Bft)
02.04.2014 08:25 9,3 C 80 % 1012,6 hPa 0,0 l/m 0,0 km/h (0 Bft) SW 225 6,0 C 0,0 C 0,0 km/h (0 Bft)
02.04.2014 08:30 10,7 C 78 % 1012,6 hPa 0,0 l/m 0,0 km/h (0 Bft) SW 225 7,0 C 0,0 C 0,0 km/h (0 Bft)
02.04.2014 08:35 11,8 C 72 % 1012,6 hPa 0,0 l/m 0,0 km/h (0 Bft) SW 225 6,9 C 0,0 C 0,0 km/h (0 Bft)
02.04.2014 08:40 12,7 C 71 % 1012,6 hPa 0,0 l/m 0,0 km/h (0 Bft) SW 225 7,6 C 0,0 C 0,0 km/h (0 Bft)
02.04.2014 08:45 12,9 C 65 % 1012,6 hPa 0,0 l/m 0,0 km/h (0 Bft) SW 225 6,5 C 0,0 C 0,0 km/h (0 Bft)
02.04.2014 08:50 13,5 C 64 % 1012,8 hPa 0,0 l/m 0,0 km/h (0 Bft) SW 225 6,8 C 0,0 C 0,0 km/h (0 Bft)
02.04.2014 08:55 13,9 C 60 % 1012,8 hPa 0,0 l/m 0,0 km/h (0 Bft) SW 225 6,3 C 0,0 C 0,0 km/h (0 Bft)
02.04.2014 09:00 13,1 C 57 % 1012,8 hPa 0,0 l/m 0,0 km/h (0 Bft) SW 225 4,8 C 0,0 C 0,0 km/h (0 Bft)
02.04.2014 09:05 14,7 C 57 % 1012,8 hPa 0,0 l/m 0,0 km/h (0 Bft) SW 225 6,3 C 0,0 C 0,0 km/h (0 Bft)
02.04.2014 09:10 15,6 C 56 % 1012,7 hPa 0,0 l/m 0,0 km/h (0 Bft) SW 225 6,9 C 0,0 C 0,0 km/h (0 Bft)
02.04.2014 09:15 16,5 C 53 % 1012,7 hPa 0,0 l/m 0,0 km/h (0 Bft) SW 225 6,9 C 0,0 C 0,0 km/h (0 Bft)
02.04.2014 09:20 16,9 C 52 % 1012,7 hPa 0,0 l/m 0,0 km/h (0 Bft) SW 225 7,0 C 0,0 C 0,0 km/h (0 Bft)
02.04.2014 09:25 17,7 C 51 % 1012,7 hPa 0,0 l/m 0,0 km/h (0 Bft) SW 225 7,4 C 0,0 C 0,0 km/h (0 Bft)
02.04.2014 09:30 18,0 C 50 % 1012,9 hPa 0,0 l/m 0,0 km/h (0 Bft) SW 225 7,4 C 0,0 C 0,0 km/h (0 Bft)
02.04.2014 09:35 18,3 C 48 % 1012,9 hPa 0,0 l/m 0,0 km/h (0 Bft) SW 225 7,1 C 0,0 C 0,0 km/h (0 Bft)
02.04.2014 09:40 18,4 C 48 % 1012,9 hPa 0,0 l/m 0,0 km/h (0 Bft) SW 225 7,2 C 0,0 C 0,0 km/h (0 Bft)
02.04.2014 09:45 18,7 C 47 % 1012,9 hPa 0,0 l/m 0,0 km/h (0 Bft) SW 225 7,2 C 0,0 C 0,0 km/h (0 Bft)
02.04.2014 09:50 18,9 C 47 % 1013,0 hPa 0,0 l/m 0,0 km/h (0 Bft) SW 225 7,3 C 0,0 C 0,0 km/h (0 Bft)
02.04.2014 09:55 19,9 C 46 % 1013,0 hPa 0,0 l/m 0,0 km/h (0 Bft) SW 225 7,9 C 0,0 C 0,0 km/h (0 Bft)
02.04.2014 10:00 20,0 C 45 % 1013,0 hPa 0,0 l/m 0,0 km/h (0 Bft) SW 225 7,7 C 0,0 C 0,0 km/h (0 Bft)
02.04.2014 10:05 19,7 C 42 % 1013,0 hPa 0,0 l/m 0,0 km/h (0 Bft) SW 225 6,4 C 0,0 C 0,0 km/h (0 Bft)
02.04.2014 10:10 20,5 C 43 % 1013,6 hPa 0,0 l/m 0,0 km/h (0 Bft) SW 225 7,5 C 0,0 C 0,0 km/h (0 Bft)
02.04.2014 10:15 21,2 C 42 % 1013,6 hPa 0,0 l/m 0,0 km/h (0 Bft) SW 225 7,8 C 0,0 C 0,0 km/h (0 Bft)
02.04.2014 10:20 20,8 C 39 % 1013,6 hPa 0,0 l/m 0,0 km/h (0 Bft) SW 225 6,3 C 0,0 C 0,0 km/h (0 Bft)
02.04.2014 10:25 20,3 C 39 % 1013,6 hPa 0,0 l/m 0,0 km/h (0 Bft) SW 225 5,9 C 0,0 C 0,0 km/h (0 Bft)
02.04.2014 10:30 19,9 C 37 % 1013,7 hPa 0,0 l/m 0,0 km/h (0 Bft) SW 225 4,8 C 0,0 C 0,0 km/h (0 Bft)
02.04.2014 10:35 20,3 C 38 % 1013,7 hPa 0,0 l/m 0,0 km/h (0 Bft) SW 225 5,5 C 0,0 C 0,0 km/h (0 Bft)
02.04.2014 10:40 20,8 C 36 % 1013,7 hPa 0,0 l/m 0,0 km/h (0 Bft) SW 225 5,2 C 0,0 C 0,0 km/h (0 Bft)
02.04.2014 10:45 20,4 C 37 % 1013,7 hPa 0,0 l/m 0,0 km/h (0 Bft) SW 225 5,2 C 0,0 C 0,0 km/h (0 Bft)
02.04.2014 10:50 19,7 C 35 % 1013,8 hPa 0,0 l/m 0,0 km/h (0 Bft) SW 225 3,8 C 0,0 C 0,0 km/h (0 Bft)
02.04.2014 10:55 20,4 C 36 % 1013,8 hPa 0,0 l/m 0,0 km/h (0 Bft) SW 225 4,8 C 0,0 C 0,0 km/h (0 Bft)
02.04.2014 11:00 20,8 C 36 % 1013,8 hPa 0,0 l/m 0,0 km/h (0 Bft) SW 225 5,2 C 0,0 C 0,0 km/h (0 Bft)
02.04.2014 11:05 20,6 C 34 % 1013,8 hPa 0,0 l/m 0,0 km/h (0 Bft) SW 225 4,2 C 0,0 C 0,0 km/h (0 Bft)
02.04.2014 11:10 20,2 C 33 % 1013,7 hPa 0,0 l/m 0,0 km/h (0 Bft) SW 225 3,4 C 0,0 C 0,0 km/h (0 Bft)
02.04.2014 11:15 21,4 C 33 % 1013,7 hPa 0,0 l/m 0,0 km/h (0 Bft) SW 225 4,5 C 0,0 C 0,0 km/h (0 Bft)
02.04.2014 11:20 21,0 C 33 % 1013,7 hPa 0,0 l/m 0,0 km/h (0 Bft) SW 225 4,1 C 0,0 C 0,0 km/h (0 Bft)
02.04.2014 11:25 20,1 C 33 % 1013,7 hPa 0,0 l/m 0,0 km/h (0 Bft) SW 225 3,3 C 0,0 C 0,0 km/h (0 Bft)
02.04.2014 11:30 20,1 C 33 % 1013,8 hPa 0,0 l/m 0,0 km/h (0 Bft) SW 225 3,3 C 0,0 C 0,0 km/h (0 Bft)
02.04.2014 11:35 20,1 C 33 % 1013,8 hPa 0,0 l/m 0,0 km/h (0 Bft) SW 225 3,3 C 0,0 C 0,0 km/h (0 Bft)
02.04.2014 11:40 20,0 C 33 % 1013,8 hPa 0,0 l/m 0,0 km/h (0 Bft) SW 225 3,2 C 0,0 C 0,0 km/h (0 Bft)
02.04.2014 11:45 20,2 C 32 % 1013,8 hPa 0,0 l/m 0,0 km/h (0 Bft) SW 225 3,0 C 0,0 C 0,0 km/h (0 Bft)
02.04.2014 11:50 20,2 C 31 % 1013,7 hPa 0,0 l/m 0,0 km/h (0 Bft) SW 225 2,5 C 0,0 C 0,0 km/h (0 Bft)
02.04.2014 11:55 21,6 C 32 % 1013,7 hPa 0,0 l/m 0,0 km/h (0 Bft) SW 225 4,2 C 0,0 C 0,0 km/h (0 Bft)
02.04.2014 12:00 22,8 C 32 % 1013,7 hPa 0,0 l/m 0,0 km/h (0 Bft) SW 225 5,2 C 0,0 C 0,0 km/h (0 Bft)
02.04.2014 12:05 21,8 C 31 % 1013,7 hPa 0,0 l/m 0,0 km/h (0 Bft) SW 225 3,9 C 0,0 C 0,0 km/h (0 Bft)
02.04.2014 12:10 21,4 C 31 % 1013,8 hPa 0,0 l/m 0,0 km/h (0 Bft) SW 225 3,6 C 0,0 C 0,0 km/h (0 Bft)
02.04.2014 12:15 21,4 C 30 % 1013,8 hPa 0,0 l/m 0,0 km/h (0 Bft) SW 225 3,1 C 0,0 C 0,0 km/h (0 Bft)
02.04.2014 12:20 21,6 C 31 % 1013,8 hPa 0,0 l/m 0,0 km/h (0 Bft) SW 225 3,7 C 0,0 C 0,0 km/h (0 Bft)
02.04.2014 12:25 22,1 C 31 % 1013,8 hPa 0,0 l/m 0,0 km/h (0 Bft) SW 225 4,2 C 0,0 C 0,0 km/h (0 Bft)
02.04.2014 12:30 20,9 C 31 % 1013,6 hPa 0,0 l/m 0,0 km/h (0 Bft) SW 225 3,1 C 0,0 C 0,0 km/h (0 Bft)
02.04.2014 12:35 21,5 C 31 % 1013,6 hPa 0,0 l/m 0,0 km/h (0 Bft) SW 225 3,7 C 0,0 C 0,0 km/h (0 Bft)
02.04.2014 12:40 22,1 C 31 % 1013,6 hPa 0,0 l/m 0,0 km/h (0 Bft) SW 225 4,2 C 0,0 C 0,0 km/h (0 Bft)
02.04.2014 12:45 20,8 C 31 % 1013,6 hPa 0,0 l/m 0,0 km/h (0 Bft) SW 225 3,1 C 0,0 C 0,0 km/h (0 Bft)
02.04.2014 12:50 21,1 C 32 % 1013,2 hPa 0,0 l/m 0,0 km/h (0 Bft) SW 225 3,8 C 0,0 C 0,0 km/h (0 Bft)
02.04.2014 12:55 21,4 C 32 % 1013,2 hPa 0,0 l/m 0,0 km/h (0 Bft) SW 225 4,0 C 0,0 C 0,0 km/h (0 Bft)
02.04.2014 13:00 21,8 C 31 % 1013,2 hPa 0,0 l/m 0,0 km/h (0 Bft) SW 225 3,9 C 0,0 C 0,0 km/h (0 Bft)
02.04.2014 13:05 21,5 C 32 % 1013,2 hPa 0,0 l/m 0,0 km/h (0 Bft) SW 225 4,1 C 0,0 C 0,0 km/h (0 Bft)
02.04.2014 13:10 21,6 C 32 % 1013,1 hPa 0,0 l/m 0,0 km/h (0 Bft) SW 225 4,2 C 0,0 C 0,0 km/h (0 Bft)
02.04.2014 13:15 21,9 C 32 % 1013,1 hPa 0,0 l/m 0,0 km/h (0 Bft) SW 225 4,5 C 0,0 C 0,0 km/h (0 Bft)
02.04.2014 13:20 21,5 C 31 % 1013,1 hPa 0,0 l/m 0,0 km/h (0 Bft) SW 225 3,7 C 0,0 C 0,0 km/h (0 Bft)
02.04.2014 13:25 20,6 C 32 % 1013,1 hPa 0,0 l/m 0,0 km/h (0 Bft) SW 225 3,3 C 0,0 C 0,0 km/h (0 Bft)
02.04.2014 13:30 20,2 C 32 % 1012,9 hPa 0,0 l/m 0,0 km/h (0 Bft) SW 225 3,0 C 0,0 C 0,0 km/h (0 Bft)
02.04.2014 13:35 21,3 C 32 % 1012,9 hPa 0,0 l/m 0,0 km/h (0 Bft) SW 225 3,9 C 0,0 C 0,0 km/h (0 Bft)
02.04.2014 13:40 21,6 C 32 % 1012,9 hPa 0,0 l/m 0,0 km/h (0 Bft) SW 225 4,2 C 0,0 C 0,0 km/h (0 Bft)
02.04.2014 13:45 21,5 C 31 % 1012,9 hPa 0,0 l/m 0,0 km/h (0 Bft) SW 225 3,7 C 0,0 C 0,0 km/h (0 Bft)
02.04.2014 13:50 21,1 C 32 % 1012,8 hPa 0,0 l/m 0,0 km/h (0 Bft) SW 225 3,8 C 0,0 C 0,0 km/h (0 Bft)
02.04.2014 13:55 20,4 C 32 % 1012,8 hPa 0,0 l/m 0,0 km/h (0 Bft) SW 225 3,2 C 0,0 C 0,0 km/h (0 Bft)
02.04.2014 14:00 20,3 C 32 % 1012,8 hPa 0,0 l/m 0,0 km/h (0 Bft) SW 225 3,1 C 0,0 C 0,0 km/h (0 Bft)
02.04.2014 14:05 21,5 C 32 % 1012,8 hPa 0,0 l/m 0,0 km/h (0 Bft) SW 225 4,1 C 0,0 C 0,0 km/h (0 Bft)
02.04.2014 14:10 20,8 C 31 % 1012,7 hPa 0,0 l/m 0,0 km/h (0 Bft) SW 225 3,1 C 0,0 C 0,0 km/h (0 Bft)
02.04.2014 14:15 21,2 C 31 % 1012,7 hPa 0,0 l/m 0,0 km/h (0 Bft) SW 225 3,4 C 0,0 C 0,0 km/h (0 Bft)
02.04.2014 14:20 20,7 C 31 % 1012,7 hPa 0,0 l/m 0,0 km/h (0 Bft) SW 225 3,0 C 0,0 C 0,0 km/h (0 Bft)
02.04.2014 14:25 21,4 C 31 % 1012,7 hPa 0,0 l/m 0,0 km/h (0 Bft) SW 225 3,6 C 0,0 C 0,0 km/h (0 Bft)
02.04.2014 14:30 21,5 C 30 % 1012,5 hPa 0,0 l/m 0,0 km/h (0 Bft) SW 225 3,2 C 0,0 C 0,0 km/h (0 Bft)
02.04.2014 14:35 20,6 C 31 % 1012,5 hPa 0,0 l/m 0,0 km/h (0 Bft) SW 225 2,9 C 0,0 C 0,0 km/h (0 Bft)
02.04.2014 14:40 21,0 C 30 % 1012,5 hPa 0,0 l/m 0,0 km/h (0 Bft) SW 225 2,8 C 0,0 C 0,0 km/h (0 Bft)
02.04.2014 14:45 21,3 C 30 % 1012,5 hPa 0,0 l/m 0,0 km/h (0 Bft) SW 225 3,0 C 0,0 C 0,0 km/h (0 Bft)
02.04.2014 14:50 21,7 C 30 % 1012,4 hPa 0,0 l/m 0,0 km/h (0 Bft) SW 225 3,4 C 0,0 C 0,0 km/h (0 Bft)
02.04.2014 14:55 22,0 C 29 % 1012,4 hPa 0,0 l/m 0,0 km/h (0 Bft) SW 225 3,1 C 0,0 C 0,0 km/h (0 Bft)
02.04.2014 15:00 22,1 C 27 % 1012,4 hPa 0,0 l/m 0,0 km/h (0 Bft) SW 225 2,2 C 0,0 C 0,0 km/h (0 Bft)
02.04.2014 15:05 21,7 C 29 % 1012,4 hPa 0,0 l/m 0,0 km/h (0 Bft) SW 225 2,9 C 0,0 C 0,0 km/h (0 Bft)
02.04.2014 15:10 21,9 C 30 % 1012,4 hPa 0,0 l/m 0,0 km/h (0 Bft) SW 225 3,5 C 0,0 C 0,0 km/h (0 Bft)
02.04.2014 15:15 22,0 C 27 % 1012,4 hPa 0,0 l/m 0,0 km/h (0 Bft) SW 225 2,1 C 0,0 C 0,0 km/h (0 Bft)
02.04.2014 15:20 22,2 C 28 % 1012,4 hPa 0,0 l/m 0,0 km/h (0 Bft) SW 225 2,8 C 0,0 C 0,0 km/h (0 Bft)
02.04.2014 15:25 21,1 C 27 % 1012,4 hPa 0,0 l/m 0,0 km/h (0 Bft) SW 225 1,4 C 0,0 C 0,0 km/h (0 Bft)
02.04.2014 15:30 21,0 C 28 % 1012,0 hPa 0,0 l/m 0,0 km/h (0 Bft) SW 225 1,8 C 0,0 C 0,0 km/h (0 Bft)
02.04.2014 15:35 21,5 C 28 % 1012,0 hPa 0,0 l/m 0,0 km/h (0 Bft) SW 225 2,2 C 0,0 C 0,0 km/h (0 Bft)
02.04.2014 15:40 21,2 C 29 % 1012,0 hPa 0,0 l/m 0,0 km/h (0 Bft) SW 225 2,5 C 0,0 C 0,0 km/h (0 Bft)
02.04.2014 15:45 22,0 C 28 % 1012,0 hPa 0,0 l/m 0,0 km/h (0 Bft) SW 225 2,7 C 0,0 C 0,0 km/h (0 Bft)
02.04.2014 15:50 22,1 C 27 % 1011,6 hPa 0,0 l/m 0,0 km/h (0 Bft) SW 225 2,2 C 0,0 C 0,0 km/h (0 Bft)
02.04.2014 15:55 22,5 C 28 % 1011,6 hPa 0,0 l/m 0,0 km/h (0 Bft) SW 225 3,1 C 0,0 C 0,0 km/h (0 Bft)
02.04.2014 16:00 22,4 C 27 % 1011,6 hPa 0,0 l/m 0,0 km/h (0 Bft) SW 225 2,5 C 0,0 C 0,0 km/h (0 Bft)
02.04.2014 16:05 22,4 C 27 % 1011,6 hPa 0,0 l/m 0,0 km/h (0 Bft) SW 225 2,5 C 0,0 C 0,0 km/h (0 Bft)
02.04.2014 16:08 22,3 C 27 % 1011,3 hPa 0,0 l/m 0,0 km/h (0 Bft) SW 225 2,4 C 0,0 C 0,0 km/h (0 Bft)
02.04.2014 16:10 22,3 C 27 % 1011,3 hPa 0,0 l/m 0,0 km/h (0 Bft) SW 225 2,4 C 0,0 C 0,0 km/h (0 Bft)
02.04.2014 16:15 21,5 C 28 % 1011,3 hPa 0,0 l/m 0,0 km/h (0 Bft) SW 225 2,2 C 0,0 C 0,0 km/h (0 Bft)
02.04.2014 16:20 21,8 C 29 % 1011,3 hPa 0,0 l/m 0,0 km/h (0 Bft) SW 225 3,0 C 0,0 C 0,0 km/h (0 Bft)
02.04.2014 16:25 21,6 C 28 % 1011,3 hPa 0,0 l/m 0,0 km/h (0 Bft) SW 225 2,3 C 0,0 C 0,0 km/h (0 Bft)
02.04.2014 16:30 21,4 C 29 % 1010,9 hPa 0,0 l/m 0,0 km/h (0 Bft) SW 225 2,6 C 0,0 C 0,0 km/h (0 Bft)
02.04.2014 16:35 22,0 C 27 % 1010,9 hPa 0,0 l/m 0,0 km/h (0 Bft) SW 225 2,1 C 0,0 C 0,0 km/h (0 Bft)
02.04.2014 16:40 21,6 C 28 % 1010,9 hPa 0,0 l/m 0,0 km/h (0 Bft) SW 225 2,3 C 0,0 C 0,0 km/h (0 Bft)
02.04.2014 16:45 21,7 C 30 % 1010,9 hPa 0,0 l/m 0,0 km/h (0 Bft) SW 225 3,4 C 0,0 C 0,0 km/h (0 Bft)
02.04.2014 16:50 21,1 C 30 % 1010,2 hPa 0,0 l/m 0,0 km/h (0 Bft) SW 225 2,8 C 0,0 C 0,0 km/h (0 Bft)
02.04.2014 16:55 20,4 C 30 % 1010,2 hPa 0,0 l/m 0,0 km/h (0 Bft) SW 225 2,2 C 0,0 C 0,0 km/h (0 Bft)
02.04.2014 17:00 20,3 C 30 % 1010,2 hPa 0,0 l/m 0,0 km/h (0 Bft) SW 225 2,2 C 0,0 C 0,0 km/h (0 Bft)
02.04.2014 17:05 20,6 C 30 % 1010,2 hPa 0,0 l/m 0,0 km/h (0 Bft) SW 225 2,4 C 0,0 C 0,0 km/h (0 Bft)
02.04.2014 17:10 20,5 C 31 % 1009,4 hPa 0,0 l/m 0,0 km/h (0 Bft) SW 225 2,8 C 0,0 C 0,0 km/h (0 Bft)
02.04.2014 17:15 20,4 C 30 % 1009,4 hPa 0,0 l/m 0,0 km/h (0 Bft) SW 225 2,2 C 0,0 C 0,0 km/h (0 Bft)
02.04.2014 17:20 20,0 C 31 % 1009,4 hPa 0,0 l/m 0,0 km/h (0 Bft) SW 225 2,4 C 0,0 C 0,0 km/h (0 Bft)
02.04.2014 17:25 19,6 C 31 % 1009,4 hPa 0,0 l/m 0,0 km/h (0 Bft) SW 225 2,0 C 0,0 C 0,0 km/h (0 Bft)
02.04.2014 17:30 19,3 C 31 % 1009,9 hPa 0,0 l/m 0,0 km/h (0 Bft) SW 225 1,8 C 0,0 C 0,0 km/h (0 Bft)
02.04.2014 17:35 19,3 C 31 % 1009,9 hPa 0,0 l/m 0,0 km/h (0 Bft) SW 225 1,8 C 0,0 C 0,0 km/h (0 Bft)
02.04.2014 17:40 19,3 C 32 % 1009,9 hPa 0,0 l/m 0,0 km/h (0 Bft) SW 225 2,2 C 0,0 C 0,0 km/h (0 Bft)
02.04.2014 17:45 19,0 C 32 % 1009,9 hPa 0,0 l/m 0,0 km/h (0 Bft) SW 225 1,9 C 0,0 C 0,0 km/h (0 Bft)
02.04.2014 17:50 18,7 C 32 % 1009,9 hPa 0,0 l/m 0,0 km/h (0 Bft) SW 225 1,7 C 0,0 C 0,0 km/h (0 Bft)
02.04.2014 17:55 18,6 C 33 % 1009,9 hPa 0,0 l/m 0,0 km/h (0 Bft) SW 225 2,0 C 0,0 C 0,0 km/h (0 Bft)
02.04.2014 18:00 18,4 C 33 % 1009,9 hPa 0,0 l/m 0,0 km/h (0 Bft) SW 225 1,8 C 0,0 C 0,0 km/h (0 Bft)
02.04.2014 18:05 18,1 C 34 % 1009,9 hPa 0,0 l/m 0,0 km/h (0 Bft) SW 225 2,0 C 0,0 C 0,0 km/h (0 Bft)
02.04.2014 18:10 17,8 C 35 % 1009,7 hPa 0,0 l/m 0,0 km/h (0 Bft) SW 225 2,1 C 0,0 C 0,0 km/h (0 Bft)
02.04.2014 18:15 17,5 C 36 % 1009,7 hPa 0,0 l/m 0,0 km/h (0 Bft) SW 225 2,3 C 0,0 C 0,0 km/h (0 Bft)
02.04.2014 18:20 17,1 C 37 % 1009,7 hPa 0,0 l/m 0,0 km/h (0 Bft) SW 225 2,3 C 0,0 C 0,0 km/h (0 Bft)
02.04.2014 18:25 16,8 C 38 % 1009,7 hPa 0,0 l/m 0,0 km/h (0 Bft) SW 225 2,4 C 0,0 C 0,0 km/h (0 Bft)
02.04.2014 18:30 16,8 C 39 % 1009,7 hPa 0,0 l/m 0,0 km/h (0 Bft) SW 225 2,8 C 0,0 C 0,0 km/h (0 Bft)
02.04.2014 18:35 16,6 C 39 % 1009,7 hPa 0,0 l/m 0,0 km/h (0 Bft) SW 225 2,6 C 0,0 C 0,0 km/h (0 Bft)
02.04.2014 18:40 16,4 C 40 % 1009,7 hPa 0,0 l/m 0,0 km/h (0 Bft) SW 225 2,8 C 0,0 C 0,0 km/h (0 Bft)
02.04.2014 18:45 16,1 C 40 % 1009,7 hPa 0,0 l/m 0,0 km/h (0 Bft) SW 225 2,5 C 0,0 C 0,0 km/h (0 Bft)
02.04.2014 18:50 16,0 C 41 % 1009,6 hPa 0,0 l/m 0,0 km/h (0 Bft) SW 225 2,8 C 0,0 C 0,0 km/h (0 Bft)
02.04.2014 18:55 15,7 C 44 % 1009,6 hPa 0,0 l/m 0,0 km/h (0 Bft) SW 225 3,5 C 0,0 C 0,0 km/h (0 Bft)
02.04.2014 19:00 15,5 C 44 % 1009,6 hPa 0,0 l/m 0,0 km/h (0 Bft) SW 225 3,3 C 0,0 C 0,0 km/h (0 Bft)
02.04.2014 19:05 15,2 C 46 % 1009,6 hPa 0,0 l/m 0,0 km/h (0 Bft) SW 225 3,7 C 0,0 C 0,0 km/h (0 Bft)
02.04.2014 19:10 15,0 C 47 % 1009,8 hPa 0,0 l/m 0,0 km/h (0 Bft) SW 225 3,8 C 0,0 C 0,0 km/h (0 Bft)
02.04.2014 19:15 14,8 C 47 % 1009,8 hPa 0,0 l/m 0,0 km/h (0 Bft) SW 225 3,6 C 0,0 C 0,0 km/h (0 Bft)
02.04.2014 19:20 14,5 C 48 % 1009,8 hPa 0,0 l/m 0,0 km/h (0 Bft) SW 225 3,6 C 0,0 C 0,0 km/h (0 Bft)
02.04.2014 19:25 13,3 C 51 % 1009,8 hPa 0,0 l/m 0,0 km/h (0 Bft) SW 225 3,4 C 0,0 C 0,0 km/h (0 Bft)
02.04.2014 19:30 13,4 C 52 % 1009,6 hPa 0,0 l/m 0,0 km/h (0 Bft) SW 225 3,7 C 0,0 C 0,0 km/h (0 Bft)
02.04.2014 19:35 12,8 C 56 % 1009,6 hPa 0,0 l/m 0,0 km/h (0 Bft) SW 225 4,2 C 0,0 C 0,0 km/h (0 Bft)
02.04.2014 19:40 12,8 C 56 % 1009,6 hPa 0,0 l/m 0,0 km/h (0 Bft) SW 225 4,2 C 0,0 C 0,0 km/h (0 Bft)
02.04.2014 19:45 12,6 C 56 % 1009,6 hPa 0,0 l/m 0,0 km/h (0 Bft) SW 225 4,1 C 0,0 C 0,0 km/h (0 Bft)
02.04.2014 19:50 12,4 C 57 % 1009,7 hPa 0,0 l/m 0,0 km/h (0 Bft) SW 225 4,1 C 0,0 C 0,0 km/h (0 Bft)
02.04.2014 19:55 11,6 C 59 % 1009,7 hPa 0,0 l/m 0,0 km/h (0 Bft) SW 225 3,9 C 0,0 C 0,0 km/h (0 Bft)
02.04.2014 20:00 11,9 C 59 % 1009,7 hPa 0,0 l/m 0,0 km/h (0 Bft) SW 225 4,1 C 0,0 C 0,0 km/h (0 Bft)
02.04.2014 20:05 11,7 C 60 % 1009,7 hPa 0,0 l/m 0,0 km/h (0 Bft) SW 225 4,2 C 0,0 C 0,0 km/h (0 Bft)
02.04.2014 20:10 11,4 C 62 % 1009,8 hPa 0,0 l/m 0,0 km/h (0 Bft) SW 225 4,4 C 0,0 C 0,0 km/h (0 Bft)
02.04.2014 20:15 11,2 C 63 % 1009,8 hPa 0,0 l/m 0,0 km/h (0 Bft) SW 225 4,4 C 0,0 C 0,0 km/h (0 Bft)
02.04.2014 20:20 10,9 C 65 % 1009,8 hPa 0,0 l/m 0,0 km/h (0 Bft) SW 225 4,6 C 0,0 C 0,0 km/h (0 Bft)
02.04.2014 20:25 10,7 C 66 % 1009,8 hPa 0,0 l/m 0,0 km/h (0 Bft) SW 225 4,6 C 0,0 C 0,0 km/h (0 Bft)
02.04.2014 20:30 10,6 C 67 % 1009,8 hPa 0,0 l/m 0,0 km/h (0 Bft) SW 225 4,7 C 0,0 C 0,0 km/h (0 Bft)
02.04.2014 20:35 10,6 C 67 % 1009,8 hPa 0,0 l/m 0,0 km/h (0 Bft) SW 225 4,7 C 0,0 C 0,0 km/h (0 Bft)
02.04.2014 20:40 10,4 C 67 % 1009,8 hPa 0,0 l/m 0,0 km/h (0 Bft) SW 225 4,5 C 0,0 C 0,0 km/h (0 Bft)
02.04.2014 20:45 10,4 C 67 % 1009,8 hPa 0,0 l/m 0,0 km/h (0 Bft) SW 225 4,5 C 0,0 C 0,0 km/h (0 Bft)
02.04.2014 20:50 10,5 C 67 % 1010,0 hPa 0,0 l/m 0,0 km/h (0 Bft) SW 225 4,6 C 0,0 C 0,0 km/h (0 Bft)
02.04.2014 20:55 10,3 C 67 % 1010,0 hPa 0,0 l/m 0,0 km/h (0 Bft) SW 225 4,4 C 0,0 C 0,0 km/h (0 Bft)
02.04.2014 21:00 9,6 C 66 % 1010,0 hPa 0,0 l/m 0,0 km/h (0 Bft) SW 225 3,6 C 0,0 C 0,0 km/h (0 Bft)
02.04.2014 21:05 9,3 C 67 % 1010,0 hPa 0,0 l/m 0,0 km/h (0 Bft) SW 225 3,5 C 0,0 C 0,0 km/h (0 Bft)
02.04.2014 21:10 9,2 C 66 % 1009,8 hPa 0,0 l/m 0,0 km/h (0 Bft) SW 225 3,2 C 0,0 C 0,0 km/h (0 Bft)
02.04.2014 21:15 9,2 C 66 % 1009,8 hPa 0,0 l/m 0,0 km/h (0 Bft) SW 225 3,2 C 0,0 C 0,0 km/h (0 Bft)
02.04.2014 21:20 9,7 C 66 % 1009,8 hPa 0,0 l/m 0,0 km/h (0 Bft) SW 225 3,7 C 0,0 C 0,0 km/h (0 Bft)
02.04.2014 21:25 9,5 C 65 % 1009,8 hPa 0,0 l/m 0,0 km/h (0 Bft) SW 225 3,3 C 0,0 C 0,0 km/h (0 Bft)
02.04.2014 21:30 9,4 C 66 % 1009,8 hPa 0,0 l/m 0,0 km/h (0 Bft) SW 225 3,4 C 0,0 C 0,0 km/h (0 Bft)
02.04.2014 21:35 9,0 C 66 % 1009,8 hPa 0,0 l/m 0,0 km/h (0 Bft) SW 225 3,0 C 0,0 C 0,0 km/h (0 Bft)
02.04.2014 21:40 8,8 C 67 % 1009,8 hPa 0,0 l/m 0,0 km/h (0 Bft) SW 225 3,0 C 0,0 C 0,0 km/h (0 Bft)
02.04.2014 21:45 8,1 C 68 % 1009,8 hPa 0,0 l/m 0,0 km/h (0 Bft) SW 225 2,6 C 0,0 C 0,0 km/h (0 Bft)
02.04.2014 21:50 8,1 C 69 % 1009,6 hPa 0,0 l/m 0,0 km/h (0 Bft) SW 225 2,8 C 0,0 C 0,0 km/h (0 Bft)
02.04.2014 21:55 8,2 C 70 % 1009,6 hPa 0,0 l/m 0,0 km/h (0 Bft) SW 225 3,1 C 0,0 C 0,0 km/h (0 Bft)
02.04.2014 22:00 8,2 C 70 % 1009,6 hPa 0,0 l/m 0,0 km/h (0 Bft) SW 225 3,1 C 0,0 C 0,0 km/h (0 Bft)
02.04.2014 22:05 8,3 C 70 % 1009,6 hPa 0,0 l/m 0,0 km/h (0 Bft) SW 225 3,2 C 0,0 C 0,0 km/h (0 Bft)
02.04.2014 22:08 8,7 C 69 % 1009,6 hPa 0,0 l/m 0,0 km/h (0 Bft) SW 225 3,3 C 0,0 C 0,0 km/h (0 Bft)
02.04.2014 22:10 8,7 C 69 % 1009,6 hPa 0,0 l/m 0,0 km/h (0 Bft) SW 225 3,3 C 0,0 C 0,0 km/h (0 Bft)
02.04.2014 22:15 9,1 C 68 % 1009,6 hPa 0,0 l/m 0,0 km/h (0 Bft) SW 225 3,5 C 0,0 C 0,0 km/h (0 Bft)
02.04.2014 22:20 9,1 C 67 % 1009,6 hPa 0,0 l/m 0,0 km/h (0 Bft) SW 225 3,3 C 0,0 C 0,0 km/h (0 Bft)
02.04.2014 22:25 8,3 C 69 % 1009,6 hPa 0,0 l/m 0,0 km/h (0 Bft) SW 225 3,0 C 0,0 C 0,0 km/h (0 Bft)
02.04.2014 22:30 8,1 C 69 % 1009,6 hPa 0,0 l/m 0,0 km/h (0 Bft) SW 225 2,8 C 0,0 C 0,0 km/h (0 Bft)
02.04.2014 22:35 7,8 C 69 % 1009,6 hPa 0,0 l/m 0,0 km/h (0 Bft) SW 225 2,5 C 0,0 C 0,0 km/h (0 Bft)
02.04.2014 22:40 7,4 C 69 % 1009,6 hPa 0,0 l/m 0,0 km/h (0 Bft) SW 225 2,1 C 0,0 C 0,0 km/h (0 Bft)
02.04.2014 22:45 7,0 C 70 % 1009,6 hPa 0,0 l/m 0,0 km/h (0 Bft) SW 225 1,9 C 0,0 C 0,0 km/h (0 Bft)
02.04.2014 22:50 6,7 C 70 % 1009,5 hPa 0,0 l/m 0,0 km/h (0 Bft) SW 225 1,6 C 0,0 C 0,0 km/h (0 Bft)
02.04.2014 22:55 6,4 C 70 % 1009,5 hPa 0,0 l/m 0,0 km/h (0 Bft) SW 225 1,3 C 0,0 C 0,0 km/h (0 Bft)
02.04.2014 23:00 6,3 C 71 % 1009,5 hPa 0,0 l/m 0,0 km/h (0 Bft) SW 225 1,4 C 0,0 C 0,0 km/h (0 Bft)
02.04.2014 23:05 6,0 C 71 % 1009,5 hPa 0,0 l/m 0,0 km/h (0 Bft) SW 225 1,1 C 0,0 C 0,0 km/h (0 Bft)
02.04.2014 23:10 6,0 C 72 % 1009,4 hPa 0,0 l/m 0,0 km/h (0 Bft) SW 225 1,3 C 0,0 C 0,0 km/h (0 Bft)
02.04.2014 23:15 6,4 C 74 % 1009,4 hPa 0,0 l/m 0,0 km/h (0 Bft) SW 225 2,1 C 0,0 C 0,0 km/h (0 Bft)
02.04.2014 23:20 6,2 C 73 % 1009,4 hPa 0,0 l/m 0,0 km/h (0 Bft) SW 225 1,7 C 0,0 C 0,0 km/h (0 Bft)
02.04.2014 23:25 5,9 C 74 % 1009,4 hPa 0,0 l/m 0,0 km/h (0 Bft) SW 225 1,6 C 0,0 C 0,0 km/h (0 Bft)
02.04.2014 23:30 6,1 C 75 % 1009,6 hPa 0,0 l/m 0,0 km/h (0 Bft) SW 225 2,0 C 0,0 C 0,0 km/h (0 Bft)
02.04.2014 23:35 6,0 C 74 % 1009,6 hPa 0,0 l/m 0,0 km/h (0 Bft) SW 225 1,7 C 0,0 C 0,0 km/h (0 Bft)
02.04.2014 23:40 6,1 C 75 % 1009,6 hPa 0,0 l/m 0,0 km/h (0 Bft) SW 225 2,0 C 0,0 C 0,0 km/h (0 Bft)
02.04.2014 23:45 6,0 C 75 % 1009,6 hPa 0,0 l/m 0,0 km/h (0 Bft) SW 225 1,9 C 0,0 C 0,0 km/h (0 Bft)
02.04.2014 23:50 6,0 C 75 % 1009,2 hPa 0,0 l/m 0,0 km/h (0 Bft) SW 225 1,9 C 0,0 C 0,0 km/h (0 Bft)
02.04.2014 23:55 5,9 C 77 % 1009,2 hPa 0,0 l/m 0,0 km/h (0 Bft) SW 225 2,2 C 0,0 C 0,0 km/h (0 Bft)
_ Min-Zeit 06:50 16:35 23:55 - 23:55 - - 06:50 23:55 23:55
Minimum _ 2,3 C 27 % 1009,2 hPa - 0,0 km/h (0 Bft) - - 0,0 C 0,0 C 0,0 km/h (0 Bft)
_ Max-Zeit 12:00 08:05 12:25 23:55 23:55 - - 09:55 23:55 23:55
Maximum _ 22,8 C 86 % 1013,8 hPa 0,0 l/m 0,0 km/h
SW (0 Bft)
- - 7,9 C 0,0 C 0,0 km/h
SW (0 Bft)
Durchschnitt _ 12,1 C 58 % 1011,9 hPa #0,0 l/m 0,0 km/h (0 Bft) - - - 2,8 C 0,0 C 0,0 km/h (0 Bft)